Home Session History Contact

Recorded Sessions


prev .. 6 7 8 9 10 11 12 13 14 15 16 17 18 19 20 21 22 23 24 25 26 27 .. Next

    Target # Date Color Temperature Texture Feelings Assumptions Description Comments
801. 9150-8249 10/28/2011 9:32 AM city
802. 5713-4804 10/28/2011 9:32 AM birds
803. 4571-9480 10/28/2011 9:31 AM red, white cold rough calm barn
804. 7904-2613 10/23/2011 2:54 PM blue, yellow, green cool, hot rough, plain, The sun, mountain, water The sun, mountain, storm
805. 4468-8359 10/23/2011 2:52 PM red 69 soft it is a pillow My assumtions is, it is a pillow square and soft
806. 5783-3572 10/23/2011 2:49 PM Red 70 smooth but hard round A red ball
807. 9026-7815 10/23/2011 10:59 AM black 29 bold bad number
808. 6268-9359 10/22/2011 12:49 AM blue green cool nice good
809. 0359-9168 10/18/2011 7:38 PM red blue 64 sky leaves warm love
810. 7804-2713 10/15/2011 4:21 PM white, green, light blue, dark brown, gold/yellow ambient wood, natural comfortable, not alert, love flowers, wood, window or frame, water, forest, wooden cake holder type of thing
811. 1880-5682 10/14/2011 10:19 PM light and dark
812. 8046-6837 10/14/2011 10:07 PM yellow and blue cold tender but can be hard has something to do with water like water
813. 4602-2494 10/14/2011 10:03 PM orange blue       purple hot and cold soft beach
814. 5913-3794 10/14/2011 10:01 PM yellow white red green mild and hot soft easy to remember what is the next number numbers in a row but are not in order none
815. 3359-0261 10/09/2011 12:40 PM Grey Stone House
816. 7824-5713 10/09/2011 12:13 PM Green
817. 0125-5926 10/09/2011 7:07 AM Grey Cold Rocky Block Building or structure
818. 2379-9150 10/09/2011 6:34 AM Green Windy Smooth ., tree like Open Forrest A field or trees
819. 6682-3591 10/09/2011 6:32 AM Red Warm Smooth Happy Red ball Round or oval in shape
820. 6125-5913 10/06/2011 8:55 AM orange yellow 18 calm/breeze
821. 9268-9359 10/02/2011 7:35 PM Silver Cold Cold, hard, metal Empty A storage area for a pet shop A warehouse
822. 3571-1370 10/01/2011 4:49 PM green room temperature smooth happy
823. 2359-0269 10/01/2011 4:49 PM black clock....
824. 1046-6138 10/01/2011 4:47 PM red cold rough happy
825. 1682-0594 10/01/2011 4:45 PM dark blue 65F wet Sad Raining
826. 0137-8046 10/01/2011 4:44 PM blue 72F moist calm Beautiful
827. 8013-4805 09/28/2011 6:49 PM White yellow green
828. 5780-1572 09/28/2011 6:35 PM Green, brown, grey Warm 18 Rough Warm humid
829. 0238-6057 09/28/2011 5:35 AM blue humid square soft wildlife a landscape
830. 8046-7135 09/20/2011 5:29 PM white church
831. 8935-6037 09/19/2011 10:19 PM yellow blue cool soft hard good
832. 6824-4915 09/19/2011 10:19 PM orange hot rough great
833. 4427-1583 09/13/2011 3:28 PM Yellow Hot Soft Fluffy
834. 0137-8049 09/05/2011 2:31 AM white
835. 6460-1372 09/05/2011 2:28 AM red hot heat
836. 0003-9170 09/05/2011 2:26 AM blue
837. 0137-5916 08/29/2011 11:34 AM red 27 yes cool ok ok ok
838. 2679-0471 08/28/2011 5:02 AM bright yellow, blue fluffy, delicate
839. 4268-9357 08/28/2011 4:42 AM red, yellow, white 76 soft fabric, quilt wet, damp quilt or blanket
840. 5793-1502 08/26/2011 12:54 PM Red
841. 1680-1571 08/26/2011 12:48 PM Blue Hot BLUE Warm
842. 2248-9158 08/20/2011 1:34 PM red hot smooth cold, scared help chaos
843. 7915-3724 08/19/2011 8:58 AM rabbit
844. 7904-5726 08/19/2011 8:55 AM rabbit
845. 1235-6027 08/19/2011 8:54 AM black orange warm bird thoughtfull bird
846. 3793-4682 08/19/2011 8:52 AM brown hot sand thirsty sand
847. 6137-7946 08/19/2011 8:49 AM blue warm water inchanted ocean took some time
848. 0237-8047 08/19/2011 8:42 AM white cold snow chilled chilly snowy area again snap image
849. 4602-2793 08/19/2011 8:40 AM yellow black warm 70's asphault anxious pic taken on a street of the street street came pretty fast too
850. 5824-4615 08/19/2011 8:39 AM greens blues browns whites chilly    50's grass wooden fence (old) partly cloudy day building peace..    very quiet place, happy seems to be taken from the road during a vacation or scenic trip House in the distance, livable.. withing an old wood fence,,, tall grassed field.... partly cloudy the thought was immediate and clear

prev .. 6 7 8 9 10 11 12 13 14 15 16 17 18 19 20 21 22 23 24 25 26 27 .. Next






Date & Time in Pacific Time
Copyright 2018 DevelopESP.com All rights reserved.